Location: Grust
(42.8833°N, 0.0333°W)
Time: 14:33:04
(UTC+00:00)

Okean O Rocket - Pass Details

Date: 25 October 2020
Orbit: 622 x 645 km, 98.2° (Epoch: 24 November)

Event Time Altitude Azimuth Distance (km) Brightness Sun altitude
Rises 17:31:12 0° 170° (S) 2,912 5.0 -6.1°
Reaches altitude 10° 17:33:24 10° 172° (S) 2,006 4.2 -6.5°
Maximum altitude 17:37:45 73° 257° (WSW) 660 1.9 -7.3°
Drops below altitude 10° 17:42:07 10° 343° (NNW) 2,009 4.3 -8.1°
Sets 17:44:20 0° 345° (NNW) 2,919 5.1 -8.5°
